This is the latest recevied weather packets stored in our database for station/object KC1BRV. If no packets are shown the sender has not sent any weather packets the latest 10 day(s).
| Time | Temp. | Humidity | Pressure | Rain* | Wind** | Luminosity | Snow |
|---|---|---|---|---|---|---|---|
| 1777561865 | 10° C | 96% | 1008.4 hPa | 4.83 mm | - | 64 W/m² | - |
| 1777561561 | 10° C | 96% | 1008.2 hPa | 0 mm | - | 68 W/m² | - |
| 1777561257 | 10° C | 97% | 1008.2 hPa | 0 mm | - | 75 W/m² | - |
| 1777560955 | 10° C | 97% | 1008.3 hPa | 0 mm | - | 70 W/m² | - |
| 1777560653 | 10° C | 97% | 1008.1 hPa | 0 mm | - | 69 W/m² | - |
| 1777560351 | 10° C | 97% | 1008 hPa | 0 mm | - | 76 W/m² | - |
| 1777560049 | 10° C | 97% | 1008.1 hPa | 0 mm | - | 101 W/m² | - |
| 1777559744 | 10° C | 97% | 1008.1 hPa | 0 mm | - | 79 W/m² | - |
| 1777559441 | 9.44° C | 97% | 1008 hPa | 0 mm | - | 88 W/m² | - |
| 1777559138 | 9.44° C | 97% | 1008.2 hPa | 0 mm | - | 101 W/m² | - |
| 1777558838 | 9.44° C | 97% | 1008.3 hPa | 0 mm | - | 149 W/m² | - |
| 1777558534 | 9.44° C | 97% | 1008.5 hPa | 0 mm | - | 81 W/m² | - |
| 1777558230 | 9.44° C | 97% | 1008.5 hPa | 1.27 mm | - | 72 W/m² | - |
| 1777557926 | 9.44° C | 97% | 1008.4 hPa | 1.27 mm | - | 89 W/m² | - |
| 1777557624 | 8.89° C | 97% | 1008.5 hPa | 1.78 mm | - | 85 W/m² | - |
| 1777557320 | 9.44° C | 97% | 1008.6 hPa | 1.78 mm | - | 61 W/m² | - |
| 1777557016 | 8.89° C | 98% | 1008.5 hPa | 1.27 mm | - | 51 W/m² | - |
| 1777556712 | 8.89° C | 97% | 1008.5 hPa | 1.27 mm | - | 64 W/m² | - |
| 1777556409 | 8.89° C | 97% | 1008.6 hPa | 1.78 mm | - | 51 W/m² | - |
| 1777556103 | 8.89° C | 97% | 1008.7 hPa | 1.78 mm | - | 52 W/m² | - |
| 1777555804 | 8.89° C | 97% | 1008.7 hPa | 0 mm | - | 57 W/m² | - |
| 1777555500 | 9.44° C | 98% | 1008.7 hPa | 1.27 mm | - | 54 W/m² | - |
| 1777555196 | 9.44° C | 98% | 1008.9 hPa | 3.05 mm | - | 63 W/m² | - |
| 1777554894 | 8.89° C | 98% | 1008.9 hPa | 1.78 mm | - | 69 W/m² | - |
| 1777554584 | 8.89° C | 98% | 1009 hPa | 1.27 mm | - | 90 W/m² | - |
* Rain latest hour (hover to see other rain measurements)
** Current wind speed in m/s (hover to see current wind gust speed)